Location: York
(31.8935°S, 116.7682°E)
Time: 09:11:08
(UTC+08:00)

N. Korean satellite - Pass Details

Date: 23 May 2021
Orbit: 450 x 500 km, 97.2° (Epoch: 13 June)

Event Time Altitude Azimuth Distance (km) Brightness Sun altitude
Rises 18:17:21 0° 188° (S) 2,629 10.2 -12.3°
Reaches altitude 10° 18:19:56 10° 207° (SSW) 1,732 9.5 -12.8°
Maximum altitude 18:22:32 18° 251° (WSW) 1,284 9.5 -13.3°
Drops below altitude 10° 18:25:06 10° 296° (WNW) 1,703 10.7 -13.9°
Sets 18:27:37 0° 315° (NW) 2,568 11.4 -14.4°
